星链-6191 (STARLINK-6191 )

导读

STARLINK-6191是美国太空探索技术公司 SpaceX 星链计划中的一颗卫星,于2023年5月4日发射。星链计划旨在搭建全球卫星互联网络,为全球提供高速互联网服务,该卫星入轨后将助力扩充星链星座规模,提升全球网络覆盖能力与服务稳定性。</think_never_used_51bce0c785ca2f68081bfa7d91973934>

基本信息
目录编号:
56378
目录名称:
STARLINK-6191
国际标识:
2023-061E
轨道中心:
EARTH
卫星名称:
星链-6191
卫星全名:
星链-6191 (STARLINK-6191 )
卫星状态:
在轨 (已飞行1209 天)
发射日期:
2023-05-04 UTC
国别 :
美国 (US)
星等 :
--
轨道信息
数据来源 国际轨道数据
星历时间: 2026-08-24T22:38:30+0800
1天前
查看轨道信息
半长轴: 6861.214km
偏心率: 0.0001085
轨道倾角: 43.002°
近地点辐角 270.919°
升交点赤经 329.339°
平近点角 89.154°
近地点: 482.332km
远地点: 483.822km
周期: 94.267分钟
每日圈数: 15.275709
详细信息
固有亮度:
5
最大亮度:
2.5
卫星平台:
Starlink v1.5
覆盖范围:
全球
运营商:
太空探索技术公司
运营商所在国:
美国
制造商(研发单位):
太空探索技术公司
制造商所在国:
美国
使用方式:
暂无
卫星简介
星链(Starlink)计划是由太空探索技术公司(SpaceX)提出的一个巨型低轨卫星互联网星座项目,计划在2019年至2024年间在太空搭建由约1.2万颗卫星组成的“星链”网络,其中1584颗将部署在地球上空550千米处的近地轨道,并从2020年开始工作。该卫星仍在工作。
2D轨道图
3D轨道图
轨道高度分析图
轨道倾角分析图
轨道综合分析图
查看轨道综合分析图